Weather in Sovkhoz Pobeda

Russia / Kaluga Oblast     55°10′14″N   36°45′52″E
temp.,
°C
wind,
m/s
gust,
m/s
humid.,
%
clouds,
%
prec.,
mm/h
press.,
hPa
HPBL,
m
9 may, sun
sun900:00+6nnw71295100 2.6 1003730
03:00+4nw61297100 5.2 1006915
06:00+3nw61397100 1.4 1008883
09:00+5nw7128799 2.3 10111089
12:00+5nw61083100 0.2 10141034
15:00+10nw695598 0.3 10151847
18:00+10nnw5105581 0.0 10171593
21:00+5nw38785 0.0 1020149
10 may, mon
mon1000:00+3nw312745 0.0 1023258
03:00+1nnw38820 0.0 1025154
06:00+2n27790 0.0 1028153
09:00+9n47460 0.0 1028814
12:00+12nne46350 0.0 10281486
15:00+14nne45370 0.0 10281573
18:00+13nne36500 0.0 1028788
21:00+7ne34720 0.0 102955
11 may, tue
tue1100:00+5ene23790 0.0 103052
03:00+4ne36820 0.0 1030101
06:00+5ne310780 0.0 1030253
09:00+11ene59563 0.0 1029708
12:00+15ene57500 0.0 10291016
15:00+18ene56515 0.0 10271058
18:00+17ene48633 0.0 1027854
21:00+11ne3118459 0.0 1027232
12 may, wed
wed1200:00+10ene311895 0.0 1026222
03:00+10ne412965 0.0 1025277
06:00+11ene4129569 0.0 1024455
09:00+12e41095100 0.0 1024514
12:00+12ese3997100 1.0 1024650
15:00+15ese488554 1.1 1023772
18:00+14ese31194100 0.4 1023750
21:00+13e2896100 0.4 1022271
13 may, thu
thu1300:00+12ene279787 0.2 1021206
03:00+12e3998100 0.4 1020332
06:00+12ese3109899 0.6 1019432
09:00+13ese4997100 2.8 1019505
12:00+14ese479478 0.3 1019540
15:00+17se468246 1.9 1018833
18:00+16ese478610 1.4 1017615
21:00+13ese399875 1.6 1017255